Weather observations for the past three days for
Truth Or Consequences, Truth Or Consequences Municipal Airport
Metric (Imperial)
Date Time (mdt) Wind (kph) Vis. (km) Weather Sky Cond. Temperature (ºC) Relative Humidity Wind Chill (°C) Heat Index (°C) Pressure Precipitation (cm)
Air Dwpt 6 hour altimeter (cm) sea level (mb) 1 hr 3 hr 6 hr
Max. Min.
15 16:53 Vrbl 7 16.09 Fair CLR 36.1 6.7 16% 34 76.33 1007.5
15 15:53 S 17 16.09 Fair CLR 35.6 7.8 18% 33 76.38 1008.4
15 14:53 Calm 16.09 Fair CLR 36.1 7.2 17% 34 76.48 1009.4
15 13:53 Calm 16.09 Fair CLR 35 6.1 17% 33 76.56 1010.5
15 12:53 E 17 16.09 Fair CLR 34.4 8.9 21% 32 76.61 1010.8
15 11:53 SE 9 16.09 Fair CLR 32.2 8.3 32.2 19.4 23% 30 76.66 1011.7
15 10:53 SE 7 16.09 Fair CLR 30.6 7.2 23% 29 76.71 1012.7
15 09:53 E 6 16.09 Fair CLR 28.3 8.9 30% 27 76.71 1012.7
15 08:53 SE 7 16.09 Fair CLR 26.1 9.4 35% 26 76.73 1013.1
15 07:53 NE 6 16.09 Fair CLR 23.9 11.1 45% 25 76.71 1012.9
15 06:53 N 7 16.09 Fair CLR 21.1 8.9 46% 76.68 1012.6
15 05:53 NE 11 16.09 Fair CLR 20.6 5.6 28.9 20.6 38% 76.66 1012.2
15 04:53 NW 6 16.09 Fair CLR 21.1 4.4 34% 76.63 1012.0
15 03:53 NW 15 16.09 Fair CLR 21.7 3.9 31% 76.61 1011.4
15 02:53 NW 9 16.09 Fair CLR 22.2 3.9 30% 76.63 1011.7
15 01:53 NW 13 16.09 Fair CLR 23.3 4.4 29% 76.63 1011.8
15 00:53 SW 6 16.09 Fair CLR 27.2 6.1 26% 26 76.66 1011.9
14 23:53 S 7 16.09 Fair CLR 28.3 6.7 36.1 27.2 25% 27 76.66 1012.0
14 22:53 SE 7 16.09 Fair CLR 27.8 7.8 28% 27 76.63 1011.7
14 21:53 E 9 16.09 Fair CLR 30 6.7 23% 28 76.61 1011.4
14 20:53 SE 9 16.09 Fair CLR 31.7 5 19% 30 76.56 1010.7
14 19:53 SE 19 16.09 Fair CLR 33.9 3.3 14% 31 76.5 1010.0
14 18:53 SE 13 16.09 Fair CLR 35 3.3 14% 32 76.5 1010.3
14 17:53 Calm 16.09 Fair CLR 35.6 3.3 36.1 31.1 13% 33 76.53 1010.3
14 16:53 NE 7 16.09 Fair CLR 35.6 5.6 15% 33 76.58 1011.1
14 15:53 S 13 16.09 Fair CLR 35 8.3 19% 33 76.66 1012.4
14 14:53 E 17 16.09 Fair CLR 35 8.3 19% 33 76.73 1013.1
14 13:53 E 20 G 30 16.09 Fair CLR 34.4 7.8 19% 32 76.76 1013.3
14 12:53 Vrbl 11 16.09 Fair CLR 32.8 7.2 20% 31 76.81 1013.9
14 11:53 Calm 16.09 Fair CLR 31.7 9.4 31.7 20 25% 30 76.84 1014.3
14 10:53 Vrbl 9 16.09 Fair CLR 29.4 10.6 31% 28 76.86 1014.8
14 09:53 SE 6 16.09 Fair CLR 27.8 8.3 29% 27 76.91 1015.3
14 08:53 Vrbl 6 16.09 Fair CLR 26.7 6.7 28% 26 76.91 1015.5
14 07:53 W 11 16.09 Fair CLR 24.4 5.6 30% 25 76.89 1015.1
14 06:53 NW 11 16.09 Fair CLR 20.6 4.4 35% 76.84 1015.0
14 05:53 NW 15 16.09 Fair CLR 20.6 3.3 28.9 19.4 32% 76.84 1014.8
14 04:53 NW 11 16.09 Fair CLR 21.1 3.9 32% 76.81 1014.6
14 03:53 NW 9 16.09 Fair CLR 20.6 3.3 32% 76.81 1014.4
14 02:53 NW 7 16.09 Fair CLR 22.8 2.8 27% 76.81 1014.3
14 01:53 W 6 16.09 Fair CLR 25 3.3 24% 25 76.81 1014.2
14 00:53 W 6 16.09 Fair CLR 27.2 3.3 21% 26 76.84 1014.4
13 23:53 S 11 16.09 Fair CLR 28.9 1.7 35.6 28.3 17% 27 76.84 1014.3
13 22:53 S 20 16.09 Fair CLR 30 2.8 18% 28 76.78 1013.6
13 21:53 SE 17 16.09 Fair CLR 30.6 4.4 19% 29 76.71 1012.8
13 20:53 S 13 16.09 Fair CLR 31.7 4.4 18% 30 76.66 1012.1
13 19:53 SE 17 16.09 Fair CLR 33.9 3.9 15% 32 76.63 1011.5
13 18:53 S 15 16.09 Fair CLR 35 3.9 14% 33 76.58 1011.5
13 17:53 Vrbl 9 16.09 Fair CLR 34.4 4.4 35.6 31.1 15% 32 76.61 1011.9
13 16:53 Calm 16.09 Fair CLR 34.4 5 16% 32 76.66 1012.1
13 15:53 Vrbl 9 16.09 Fair CLR 34.4 5.6 17% 32 76.71 1012.7
13 14:53 SE 13 16.09 Fair CLR 33.9 5 16% 32 76.73 1013.1
13 13:53 E 19 G 28 16.09 Fair CLR 33.3 5 17% 31 76.81 1013.9
13 12:53 Vrbl 9 16.09 Fair CLR 32.2 5.6 19% 30 76.86 1014.8
13 11:53 Vrbl 7 16.09 Fair CLR 31.1 5.6 31.7 19.4 20% 29 76.89 1015.2
13 10:53 Vrbl 11 16.09 Fair CLR 30 6.1 22% 28 76.91 1015.7
13 09:53 Calm 16.09 Fair CLR 28.3 5.6 24% 27 76.96 1016.3
13 08:53 SW 7 16.09 Fair CLR 26.1 4.4 25% 26 76.96 1016.5
13 07:53 W 7 16.09 Fair CLR 24.4 5 29% 25 76.96 1016.3
13 06:53 W 13 16.09 Fair CLR 20.6 3.9 33% 76.91 1016.1
13 05:53 W 9 16.09 Fair CLR 20 3.3 27.2 20 33% 76.89 1015.7
13 04:53 W 7 16.09 Fair CLR 22.8 3.9 29% 76.84 1014.8
13 03:53 SW 9 16.09 Fair CLR 23.3 3.9 28% 76.81 1014.1
13 02:53 SW 11 16.09 Fair CLR 25 3.9 26% 25 76.78 1013.8
13 01:53 SW 6 16.09 Fair CLR 25.6 3.3 24% 25 76.81 1013.9
13 00:53 Calm 16.09 Fair CLR 25.6 3.3 24% 25 76.78 1013.8
12 23:53 S 9 16.09 Fair CLR 27.2 3.3 34.4 27.2 21% 26 76.73 1013.3
12 22:53 S 11 16.09 Fair CLR 27.8 3.3 21% 27 76.73 1013.1
12 21:53 S 7 16.09 Fair CLR 29.4 2.8 18% 28 76.68 1012.4
12 20:53 S 13 16.09 Fair CLR 30.6 2.8 17% 29 76.61 1011.5
12 19:53 SE 15 16.09 Fair CLR 32.8 2.8 15% 30 76.56 1010.7
12 18:53 S 19 G 26 16.09 Fair CLR 33.9 2.8 14% 31 76.53 1010.8
12 17:53 SE 13 16.09 Fair CLR 33.9 2.8 34.4 30.6 14% 31 76.53 1010.9
Date Time (mdt) Wind (kph) Vis. (km) Weather Sky Cond. Air Dwpt Max. Min. Relative Humidity Wind Chill (°C) Heat Index (°C) altimeter (cm) sea level (mb) 1 hr 3 hr 6 hr
6 hour
Temperature (ºC) Pressure Precipitation (cm)